Location: Caltech
(34.1382°N, 118.1253°W)
Time: 19:15:30
(UTC-07:00)

Oscar 11 - Visible Passes

Search period start: 02 September 2014 00:00
Search period end: 12 September 2014 00:00
Orbit: 619 x 629 km, 97.8° (Epoch: 01 September)

Date Brightness Start Highest point End Pass type
(mag) Time Alt. Az. Time Alt. Az. Time Alt. Az.
02 Sep 9.1 21:13:41 17° NNE 21:13:41 17° NNE 21:15:09 10° NNE visible
02 Sep 10.2 22:50:56 12° NW 22:50:56 12° NW 22:51:20 10° NW visible
03 Sep 9.0 21:32:28 20° NNE 21:32:28 20° NNE 21:34:04 10° N visible
04 Sep 9.2 21:51:16 21° N 21:51:16 21° N 21:52:45 10° N visible
05 Sep 9.5 22:10:03 18° NNW 22:10:03 18° NNW 22:11:14 10° NNW visible
06 Sep 9.5 20:51:36 10° NE 20:51:36 10° NE 20:51:41 10° NE visible
06 Sep 10.0 22:28:51 14° NNW 22:28:51 14° NNW 22:29:32 10° NNW visible
07 Sep 9.4 21:10:23 14° NNE 21:10:23 14° NNE 21:11:10 10° NNE visible
08 Sep 9.4 21:29:11 16° NNE 21:29:11 16° NNE 21:30:08 10° N visible
09 Sep 9.5 21:47:58 16° N 21:47:58 16° N 21:48:51 10° N visible
10 Sep 9.8 22:06:45 14° NNW 22:06:45 14° NNW 22:07:22 10° NNW visible
11 Sep 10.2 22:25:33 11° NNW 22:25:33 11° NNW 22:25:42 10° NNW visible
